Total_Precipitation_Accumulation
0.03 0.03 0.02 0.02 0.03 0.02 0.02 0.02 0.01 0.01 0.02 0.02 0.02 0.02 0.02 0.03 0.02 0.02 0.02 0.02 0.02 0.02 0.02 0.01 0.01 0.01 0.01 0.02 0.01 0.00 0.00 0.00 0.00 0.00 0.00 0.00 0.00 0.00 0.00 0.00 0.00 0.00 0.00 0.00 0.00 0.00 0.01 0.01 0.01 0.00 0.01 0.01 0.01 0.02 0.05 0.32 0.22 0.48 1.17 0.92 1.65 1.86 1.20 0.70 0.75 0.84 0.50 0.88 0.48 0.77 1.04 0.72 0.33 0.28 0.75 0.58 0.70 0.62 0.53 0.45 0.08 0.05 0.06 0.02 0.01 0.01 0.00 0.02
0.02 0.02 0.03 0.03 0.03 0.02 0.02 0.01 0.01 0.01 0.01 0.02 0.02 0.02 0.02 0.02 0.03 0.03 0.02 0.03 0.03 0.02 0.01 0.02 0.02 0.01 0.02 0.01 0.00 0.00 0.01 0.00 0.00 0.00 0.00 0.00 0.00 0.00 0.00 0.00 0.00 0.00 0.00 0.01 0.00 0.00 0.00 0.00 0.00 0.00 0.00 0.02 0.00 0.03 0.04 0.36 0.19 0.71 0.71 1.31 1.90 0.78 0.46 0.54 0.52 0.17 0.78 0.78 0.39 0.66 1.04 0.94 0.37 0.51 0.54 1.34 0.62 0.64 0.57 0.15 0.13 0.07 0.03 0.01 0.01 0.00 0.01 0.02
0.02 0.02 0.02 0.03 0.02 0.01 0.01 0.01 0.01 0.01 0.01 0.01 0.01 0.02 0.01 0.02 0.02 0.03 0.03 0.03 0.03 0.02 0.02 0.02 0.02 0.02 0.02 0.01 0.00 0.00 0.01 0.00 0.00 0.00 0.00 0.00 0.00 0.00 0.00 0.00 0.00 0.00 0.00 0.00 0.00 0.00 0.00 0.00 0.00 0.00 0.00 0.00 0.00 0.04 0.04 0.77 0.18 0.43 0.71 0.96 1.48 0.18 0.74 0.06 0.22 0.57 0.51 0.31 0.57 0.58 0.46 0.79 0.38 0.41 0.11 0.97 0.53 0.53 0.52 0.09 0.08 0.05 0.06 0.03 0.02 0.01 0.02 0.03
0.02 0.02 0.02 0.02 0.01 0.01 0.01 0.01 0.01 0.01 0.01 0.01 0.01 0.01 0.02 0.02 0.02 0.02 0.03 0.03 0.02 0.02 0.02 0.03 0.02 0.02 0.02 0.00 0.00 0.01 0.00 0.00 0.00 0.00 0.00 0.00 0.00 0.00 0.00 0.00 0.00 0.00 0.00 0.00 0.00 0.00 0.00 0.00 0.00 0.00 0.00 0.00 0.00 0.00 0.02 0.34 0.16 0.35 0.18 0.70 0.93 0.51 0.26 0.30 0.48 0.56 0.29 0.54 0.28 0.65 0.25 0.38 0.28 0.36 0.51 0.40 0.30 0.39 0.50 0.05 0.02 0.01 0.01 0.02 0.01 0.01 0.02 0.03
0.01 0.02 0.03 0.02 0.01 0.01 0.01 0.01 0.01 0.02 0.02 0.01 0.01 0.01 0.01 0.02 0.02 0.02 0.02 0.02 0.02 0.01 0.02 0.03 0.02 0.01 0.00 0.00 0.00 0.00 0.00 0.00 0.00 0.00 0.00 0.00 0.00 0.00 0.00 0.00 0.00 0.00 0.00 0.00 0.00 0.00 0.00 0.00 0.00 0.00 0.00 0.00 0.00 0.00 0.01 0.05 0.04 0.03 0.28 0.20 0.17 0.43 0.31 0.45 0.37 0.32 0.12 0.51 0.62 0.61 0.18 0.69 0.27 0.93 0.74 0.36 0.70 0.82 0.33 0.10 0.00 0.01 0.00 0.01 0.00 0.01 0.00 0.01
0.02 0.02 0.02 0.02 0.01 0.01 0.02 0.02 0.01 0.01 0.01 0.01 0.01 0.01 0.01 0.01 0.01 0.02 0.01 0.01 0.01 0.02 0.02 0.02 0.02 0.00 0.00 0.00 0.00 0.01 0.00 0.00 0.00 0.00 0.00 0.00 0.00 0.00 0.00 0.00 0.00 0.00 0.00 0.00 0.00 0.00 0.00 0.00 0.00 0.00 0.00 0.00 0.00 0.00 0.00 0.03 0.07 0.24 0.07 0.09 0.04 0.12 0.48 0.24 0.26 0.20 0.57 0.81 0.53 0.20 0.25 0.31 0.49 0.40 0.34 0.71 1.14 0.49 0.25 0.16 0.01 0.01 0.00 0.01 0.00 0.00 0.02 0.01
0.02 0.02 0.02 0.01 0.02 0.02 0.02 0.01 0.01 0.00 0.00 0.01 0.01 0.01 0.01 0.01 0.00 0.00 0.01 0.01 0.02 0.02 0.01 0.01 0.01 0.01 0.00 0.00 0.00 0.00 0.00 0.00 0.00 0.00 0.00 0.00 0.00 0.00 0.00 0.00 0.00 0.00 0.00 0.00 0.00 0.00 0.00 0.00 0.00 0.00 0.00 0.00 0.00 0.00 0.00 0.00 0.01 0.02 0.23 0.03 0.15 0.20 0.33 0.16 0.23 0.16 0.64 0.83 0.67 0.92 0.08 0.66 0.47 0.36 0.68 0.71 0.46 0.27 0.33 0.02 0.00 0.00 0.00 0.00 0.00 0.00 0.01 0.00
0.02 0.01 0.01 0.01 0.01 0.01 0.01 0.01 0.01 0.01 0.01 0.01 0.01 0.01 0.01 0.01 0.01 0.01 0.01 0.02 0.02 0.01 0.02 0.02 0.02 0.00 0.00 0.00 0.00 0.00 0.00 0.00 0.00 0.00 0.00 0.00 0.00 0.00 0.00 0.00 0.00 0.00 0.00 0.00 0.00 0.00 0.00 0.00 0.00 0.00 0.00 0.00 0.00 0.00 0.00 0.03 0.10 0.01 0.07 0.05 0.12 0.24 0.26 0.19 0.26 0.42 0.15 0.64 0.80 0.91 0.49 0.64 0.41 0.70 0.41 0.85 0.43 0.07 0.07 0.01 0.00 0.00 0.00 0.00 0.00 0.00 0.00 0.01
0.02 0.02 0.01 0.01 0.01 0.01 0.01 0.01 0.01 0.01 0.01 0.00 0.01 0.01 0.01 0.01 0.01 0.01 0.01 0.01 0.01 0.02 0.01 0.02 0.00 0.00 0.01 0.00 0.00 0.00 0.00 0.00 0.00 0.00 0.00 0.00 0.00 0.00 0.00 0.00 0.00 0.00 0.00 0.00 0.00 0.00 0.00 0.00 0.00 0.00 0.00 0.00 0.00 0.00 0.00 0.00 0.13 0.01 0.05 0.07 0.05 0.05 0.11 0.37 0.30 0.23 0.28 0.55 0.73 0.80 0.68 0.43 0.67 0.27 0.92 0.53 0.33 0.05 0.04 0.00 0.00 0.00 0.00 0.00 0.01 0.00 0.00 0.00
0.01 0.01 0.01 0.01 0.01 0.01 0.01 0.01 0.01 0.01 0.00 0.01 0.00 0.01 0.01 0.01 0.00 0.00 0.00 0.01 0.01 0.02 0.02 0.01 0.00 0.00 0.00 0.00 0.00 0.00 0.00 0.00 0.00 0.00 0.00 0.00 0.00 0.00 0.00 0.00 0.00 0.00 0.00 0.00 0.00 0.00 0.00 0.00 0.02 0.00 0.00 0.00 0.00 0.00 0.00 0.00 0.10 0.00 0.02 0.05 0.11 0.05 0.18 0.41 0.78 0.09 0.80 1.18 1.33 1.56 0.78 1.02 0.67 0.45 0.80 0.19 0.32 0.14 0.02 0.00 0.00 0.00 0.00 0.00 0.01 0.00 0.00 0.00
0.01 0.01 0.01 0.01 0.01 0.01 0.01 0.01 0.01 0.01 0.01 0.00 0.00 0.00 0.00 0.00 0.00 0.01 0.01 0.01 0.01 0.01 0.01 0.00 0.00 0.01 0.00 0.00 0.00 0.00 0.00 0.00 0.00 0.00 0.00 0.00 0.00 0.00 0.00 0.00 0.00 0.00 0.00 0.00 0.00 0.00 0.00 0.00 0.00 0.00 0.00 0.00 0.00 0.00 0.00 0.00 0.00 0.00 0.01 0.02 0.05 0.08 0.14 0.45 0.79 0.46 0.32 0.75 0.78 1.65 0.95 0.79 0.54 0.49 0.49 0.18 0.10 0.03 0.03 0.00 0.00 0.00 0.00 0.00 0.00 0.00 0.00 0.00
0.01 0.01 0.01 0.01 0.01 0.01 0.01 0.01 0.01 0.00 0.00 0.00 0.00 0.01 0.01 0.01 0.01 0.00 0.00 0.00 0.00 0.01 0.00 0.00 0.00 0.00 0.00 0.00 0.00 0.00 0.00 0.00 0.00 0.00 0.00 0.00 0.00 0.00 0.00 0.00 0.00 0.00 0.00 0.00 0.00 0.00 0.00 0.00 0.00 0.00 0.00 0.00 0.00 0.00 0.00 0.00 0.00 0.01 0.00 0.04 0.04 0.03 0.18 0.55 0.74 0.79 0.52 0.63 0.71 1.04 1.12 0.63 0.48 0.95 0.36 0.10 0.07 0.16 0.03 0.00 0.00 0.00 0.00 0.00 0.00 0.00 0.01 0.00
0.00 0.01 0.01 0.00 0.00 0.01 0.01 0.01 0.01 0.01 0.00 0.00 0.01 0.01 0.01 0.01 0.01 0.01 0.00 0.00 0.00 0.00 0.01 0.00 0.00 0.00 0.00 0.00 0.00 0.00 0.00 0.00 0.00 0.00 0.00 0.00 0.00 0.00 0.00 0.00 0.00 0.00 0.00 0.00 0.00 0.00 0.00 0.00 0.00 0.00 0.00 0.00 0.00 0.00 0.00 0.00 0.00 0.00 0.00 0.01 0.01 0.15 0.24 0.44 0.61 0.71 0.74 0.93 0.78 1.26 1.43 0.77 0.79 0.60 0.25 0.11 0.15 0.07 0.02 0.01 0.00 0.01 0.00 0.00 0.00 0.00 0.01 0.01
0.01 0.01 0.00 0.00 0.00 0.01 0.01 0.00 0.00 0.00 0.00 0.00 0.00 0.01 0.01 0.01 0.01 0.00 0.00 0.00 0.00 0.01 0.01 0.00 0.00 0.00 0.00 0.00 0.00 0.00 0.00 0.00 0.00 0.00 0.00 0.00 0.00 0.00 0.00 0.00 0.00 0.00 0.00 0.00 0.00 0.00 0.00 0.00 0.00 0.00 0.00 0.00 0.00 0.00 0.00 0.00 0.00 0.00 0.00 0.00 0.00 0.03 0.22 0.36 0.27 0.45 0.46 0.27 0.76 0.66 1.42 1.16 0.76 1.17 0.38 0.28 0.12 0.10 0.04 0.02 0.01 0.01 0.01 0.00 0.00 0.00 0.00 0.00
0.01 0.01 0.01 0.00 0.00 0.00 0.00 0.00 0.00 0.00 0.00 0.00 0.00 0.01 0.01 0.00 0.00 0.00 0.00 0.00 0.01 0.00 0.01 0.01 0.00 0.00 0.00 0.00 0.00 0.00 0.00 0.00 0.00 0.00 0.00 0.00 0.00 0.00 0.00 0.00 0.00 0.00 0.00 0.00 0.00 0.00 0.00 0.00 0.00 0.00 0.00 0.00 0.00 0.00 0.00 0.00 0.00 0.00 0.00 0.06 0.06 0.06 0.26 0.32 0.59 0.56 0.68 0.21 0.49 1.11 1.28 0.82 0.74 0.74 0.63 0.54 0.17 0.26 0.11 0.03 0.04 0.01 0.01 0.00 0.00 0.01 0.01 0.00
0.00 0.01 0.00 0.01 0.00 0.00 0.00 0.00 0.00 0.00 0.00 0.00 0.00 0.01 0.00 0.00 0.00 0.00 0.00 0.00 0.00 0.00 0.01 0.00 0.00 0.00 0.00 0.00 0.00 0.00 0.00 0.00 0.00 0.00 0.00 0.00 0.00 0.00 0.00 0.00 0.00 0.00 0.00 0.00 0.00 0.00 0.00 0.00 0.00 0.00 0.00 0.00 0.00 0.00 0.00 0.00 0.01 0.00 0.01 0.10 0.06 0.02 0.15 0.08 0.55 0.60 0.18 0.20 0.54 1.00 1.30 0.74 0.71 0.49 0.27 0.23 0.13 0.10 0.11 0.02 0.03 0.08 0.01 0.00 0.00 0.00 0.01 0.02
0.00 0.00 0.00 0.00 0.01 0.00 0.00 0.00 0.00 0.00 0.00 0.01 0.00 0.00 0.00 0.00 0.00 0.00 0.00 0.00 0.01 0.00 0.00 0.00 0.00 0.00 0.00 0.00 0.00 0.00 0.00 0.00 0.00 0.00 0.00 0.00 0.00 0.00 0.00 0.00 0.00 0.00 0.00 0.00 0.00 0.00 0.00 0.00 0.00 0.00 0.00 0.00 0.00 0.00 0.00 0.00 0.01 0.01 0.00 0.09 0.01 0.04 0.10 0.05 0.05 0.21 0.27 0.41 0.16 0.53 0.79 0.67 0.43 0.31 0.63 0.50 0.41 0.25 0.37 0.15 0.10 0.11 0.09 0.03 0.02 0.01 0.00 0.00
0.00 0.00 0.00 0.00 0.00 0.00 0.00 0.00 0.00 0.00 0.00 0.00 0.00 0.00 0.00 0.00 0.00 0.00 0.00 0.00 0.00 0.00 0.00 0.00 0.00 0.00 0.00 0.00 0.00 0.00 0.00 0.00 0.00 0.00 0.00 0.00 0.00 0.00 0.00 0.00 0.00 0.00 0.00 0.00 0.00 0.00 0.00 0.00 0.00 0.00 0.00 0.00 0.00 0.00 0.00 0.00 0.01 0.02 0.01 0.02 0.01 0.01 0.01 0.07 0.07 0.16 0.10 0.14 0.17 0.16 0.41 0.23 0.49 0.26 0.34 0.58 0.51 0.77 0.64 0.56 0.69 0.15 0.13 0.03 0.02 0.05 0.03 0.01
0.00 0.00 0.00 0.00 0.00 0.00 0.00 0.00 0.00 0.00 0.00 0.00 0.00 0.00 0.01 0.00 0.00 0.00 0.00 0.00 0.00 0.00 0.00 0.00 0.00 0.00 0.00 0.00 0.00 0.00 0.00 0.00 0.00 0.00 0.00 0.00 0.00 0.00 0.00 0.00 0.00 0.00 0.00 0.00 0.00 0.00 0.00 0.00 0.00 0.00 0.00 0.00 0.00 0.00 0.00 0.00 0.00 0.00 0.06 0.06 0.03 0.02 0.01 0.04 0.05 0.02 0.02 0.09 0.17 0.07 0.25 0.24 0.44 0.27 0.68 0.55 0.25 0.67 0.30 0.53 0.52 0.53 0.33 0.07 0.03 0.02 0.01 0.01
0.00 0.00 0.00 0.00 0.00 0.01 0.00 0.00 0.00 0.00 0.01 0.00 0.00 0.00 0.00 0.00 0.00 0.00 0.00 0.00 0.00 0.00 0.00 0.00 0.00 0.00 0.00 0.00 0.00 0.00 0.00 0.00 0.00 0.00 0.00 0.00 0.00 0.00 0.00 0.00 0.00 0.00 0.00 0.00 0.00 0.00 0.00 0.00 0.00 0.00 0.00 0.00 0.00 0.00 0.00 0.00 0.00 0.00 0.00 0.00 0.06 0.03 0.02 0.00 0.00 0.02 0.02 0.07 0.16 0.22 0.25 0.40 0.17 0.23 0.70 1.07 0.90 0.47 0.47 0.65 0.35 0.48 0.28 0.13 0.07 0.05 0.01 0.05
0.00 0.00 0.00 0.00 0.00 0.00 0.00 0.00 0.00 0.00 0.02 0.00 0.00 0.00 0.00 0.00 0.00 0.00 0.00 0.00 0.00 0.00 0.00 0.00 0.00 0.00 0.00 0.00 0.00 0.00 0.00 0.00 0.00 0.00 0.00 0.00 0.00 0.00 0.00 0.00 0.00 0.00 0.00 0.00 0.00 0.00 0.00 0.00 0.00 0.00 0.00 0.00 0.00 0.00 0.00 0.00 0.00 0.00 0.00 0.03 0.01 0.00 0.01 0.06 0.01 0.00 0.00 0.01 0.06 0.11 0.34 0.16 0.39 0.82 0.92 0.98 0.96 0.41 0.34 0.32 0.67 0.60 0.69 0.43 0.38 0.04 0.02 0.04
0.00 0.00 0.00 0.00 0.00 0.00 0.00 0.00 0.00 0.00 0.01 0.00 0.00 0.00 0.00 0.00 0.00 0.00 0.00 0.00 0.00 0.00 0.00 0.00 0.00 0.00 0.00 0.00 0.00 0.00 0.00 0.00 0.00 0.00 0.00 0.00 0.00 0.00 0.00 0.00 0.00 0.00 0.00 0.00 0.00 0.00 0.00 0.00 0.00 0.00 0.00 0.00 0.00 0.00 0.00 0.00 0.00 0.00 0.01 0.01 0.02 0.01 0.00 0.00 0.03 0.06 0.02 0.01 0.26 0.30 0.32 0.48 0.65 1.01 0.90 0.94 0.98 0.65 0.67 0.40 0.52 0.65 0.80 0.84 0.22 0.19 0.04 0.02
0.00 0.00 0.00 0.00 0.00 0.00 0.00 0.00 0.00 0.01 0.00 0.00 0.00 0.00 0.00 0.00 0.00 0.00 0.00 0.00 0.00 0.00 0.00 0.00 0.00 0.00 0.00 0.00 0.00 0.00 0.00 0.00 0.00 0.00 0.00 0.00 0.00 0.00 0.00 0.00 0.00 0.00 0.00 0.00 0.00 0.00 0.00 0.00 0.00 0.00 0.00 0.00 0.00 0.00 0.00 0.00 0.00 0.00 0.00 0.00 0.02 0.05 0.00 0.05 0.02 0.06 0.16 0.04 0.36 0.54 0.59 0.44 0.68 0.70 0.87 0.95 1.42 1.61 1.38 0.73 0.61 0.99 0.65 0.46 0.36 0.26 0.12 0.03
0.00 0.00 0.00 0.00 0.00 0.00 0.00 0.00 0.01 0.01 0.00 0.00 0.00 0.00 0.00 0.00 0.00 0.00 0.00 0.00 0.00 0.00 0.00 0.00 0.00 0.00 0.00 0.00 0.00 0.00 0.00 0.00 0.00 0.00 0.00 0.00 0.00 0.00 0.00 0.00 0.00 0.00 0.00 0.00 0.00 0.00 0.00 0.00 0.00 0.00 0.00 0.00 0.00 0.00 0.00 0.00 0.00 0.00 0.00 0.00 0.00 0.00 0.01 0.01 0.02 0.01 0.01 0.02 0.34 0.34 0.42 1.03 1.49 0.96 0.65 0.67 0.80 0.97 0.42 0.43 0.74 0.33 0.44 0.73 0.46 0.54 0.14 0.08
0.00 0.00 0.00 0.00 0.00 0.00 0.00 0.00 0.00 0.00 0.00 0.00 0.00 0.00 0.00 0.00 0.00 0.00 0.00 0.00 0.00 0.00 0.00 0.00 0.00 0.00 0.00 0.00 0.00 0.00 0.00 0.00 0.00 0.00 0.00 0.00 0.00 0.00 0.00 0.00 0.00 0.00 0.00 0.00 0.00 0.00 0.00 0.00 0.00 0.00 0.00 0.00 0.00 0.00 0.00 0.00 0.00 0.00 0.00 0.00 0.00 0.00 0.00 0.00 0.00 0.00 0.01 0.35 1.11 0.05 0.11 0.29 0.63 0.48 0.35 0.34 0.19 0.40 0.33 0.20 0.20 0.27 0.76 0.35 0.45 0.40 0.19 0.06
0.00 0.00 0.00 0.00 0.00 0.00 0.00 0.00 0.00 0.00 0.00 0.00 0.00 0.00 0.00 0.00 0.00 0.00 0.00 0.00 0.00 0.00 0.00 0.00 0.00 0.00 0.00 0.00 0.00 0.00 0.00 0.00 0.00 0.00 0.00 0.00 0.00 0.00 0.00 0.00 0.00 0.00 0.00 0.00 0.00 0.00 0.00 0.00 0.00 0.00 0.00 0.00 0.00 0.00 0.00 0.00 0.00 0.00 0.00 0.00 0.00 0.00 0.00 0.00 0.00 0.00 0.03 0.02 0.03 0.00 0.04 0.21 0.27 0.35 0.19 0.15 0.15 0.13 0.26 0.18 0.19 0.15 0.21 0.18 0.36 1.03 0.14 0.24
0.00 0.00 0.00 0.00 0.00 0.00 0.00 0.00 0.00 0.00 0.00 0.00 0.00 0.00 0.00 0.00 0.00 0.00 0.00 0.00 0.00 0.00 0.00 0.00 0.00 0.00 0.00 0.00 0.00 0.00 0.00 0.00 0.00 0.00 0.00 0.00 0.00 0.00 0.00 0.00 0.00 0.00 0.00 0.00 0.00 0.00 0.00 0.00 0.00 0.00 0.00 0.00 0.00 0.00 0.00 0.00 0.00 0.00 0.00 0.00 0.00 0.00 0.00 0.00 0.01 0.01 0.00 0.00 0.03 0.02 0.01 0.09 0.08 0.06 0.10 0.11 0.22 0.19 0.65 0.27 0.15 0.16 0.05 0.14 0.20 0.36 0.17 0.06
0.00 0.00 0.00 0.00 0.00 0.02 0.00 0.00 0.00 0.00 0.00 0.00 0.00 0.00 0.00 0.00 0.00 0.00 0.00 0.00 0.00 0.00 0.00 0.00 0.00 0.00 0.00 0.00 0.00 0.00 0.00 0.00 0.00 0.00 0.00 0.00 0.00 0.00 0.00 0.00 0.00 0.00 0.00 0.00 0.00 0.00 0.00 0.00 0.00 0.00 0.00 0.00 0.00 0.00 0.00 0.00 0.00 0.01 0.00 0.00 0.02 0.03 0.00 0.00 0.00 0.01 0.02 0.01 0.09 0.02 0.01 0.04 0.04 0.04 0.03 0.07 0.20 0.15 0.17 0.14 0.25 0.10 0.08 0.04 0.34 0.11 0.12 0.08
0.00 0.00 0.00 0.00 0.00 0.00 0.00 0.00 0.00 0.00 0.00 0.00 0.00 0.00 0.00 0.00 0.00 0.00 0.04 0.03 0.00 0.00 0.00 0.00 0.00 0.00 0.00 0.00 0.00 0.00 0.00 0.00 0.00 0.00 0.00 0.00 0.00 0.00 0.00 0.00 0.00 0.00 0.00 0.00 0.00 0.00 0.00 0.00 0.00 0.00 0.00 0.00 0.00 0.00 0.00 0.00 0.00 0.00 0.00 0.00 0.00 0.02 0.00 0.00 0.01 0.00 0.01 0.01 0.05 0.01 0.00 0.05 0.18 0.13 0.04 0.04 0.05 0.12 0.08 0.08 0.07 0.07 0.06 0.08 0.22 0.09 0.11 0.09
0.00 0.00 0.00 0.00 0.00 0.00 0.00 0.00 0.00 0.00 0.00 0.00 0.00 0.00 0.00 0.00 0.00 0.02 0.02 0.03 0.00 0.00 0.00 0.00 0.00 0.00 0.00 0.00 0.00 0.00 0.00 0.00 0.00 0.00 0.00 0.00 0.00 0.00 0.00 0.00 0.00 0.00 0.00 0.00 0.00 0.00 0.00 0.00 0.00 0.00 0.00 0.00 0.00 0.00 0.00 0.00 0.00 0.00 0.00 0.00 0.00 0.00 0.05 0.01 0.04 0.08 0.09 0.03 0.02 0.00 0.05 0.00 0.25 0.36 0.38 0.25 0.20 0.05 0.13 0.03 0.16 0.09 0.04 0.06 0.06 0.06 0.04 0.10
0.00 0.00 0.00 0.00 0.01 0.00 0.00 0.00 0.00 0.00 0.00 0.00 0.00 0.00 0.00 0.00 0.01 0.03 0.06 0.00 0.00 0.00 0.00 0.00 0.00 0.00 0.00 0.00 0.00 0.00 0.00 0.00 0.00 0.00 0.00 0.00 0.00 0.00 0.00 0.00 0.00 0.00 0.00 0.00 0.00 0.00 0.00 0.00 0.00 0.00 0.00 0.00 0.00 0.00 0.00 0.00 0.00 0.00 0.00 0.00 0.00 0.00 0.03 0.13 0.06 0.08 0.22 0.12 0.00 0.00 0.01 0.01 0.06 0.15 0.13 0.03 0.01 0.03 0.18 0.03 0.05 0.05 0.02 0.04 0.06 0.08 0.07 0.63
0.00 0.00 0.00 0.00 0.00 0.01 0.00 0.00 0.00 0.00 0.00 0.00 0.00 0.00 0.00 0.03 0.00 0.11 0.04 0.00 0.01 0.00 0.00 0.00 0.00 0.00 0.00 0.00 0.00 0.00 0.00 0.00 0.00 0.00 0.00 0.00 0.00 0.00 0.00 0.00 0.00 0.00 0.00 0.00 0.00 0.00 0.00 0.00 0.00 0.00 0.00 0.00 0.00 0.00 0.00 0.00 0.00 0.00 0.00 0.00 0.00 0.02 0.01 0.26 0.16 0.12 0.03 0.00 0.00 0.00 0.01 0.07 0.05 0.03 0.01 0.08 0.14 0.02 0.02 0.01 0.01 0.03 0.01 0.01 0.05 0.05 0.04 0.06
0.00 0.00 0.00 0.00 0.00 0.00 0.00 0.00 0.00 0.00 0.00 0.00 0.00 0.00 0.01 0.08 0.03 0.02 0.05 0.00 0.01 0.00 0.00 0.00 0.00 0.00 0.00 0.00 0.00 0.00 0.00 0.00 0.00 0.00 0.00 0.00 0.00 0.00 0.00 0.00 0.00 0.00 0.04 0.00 0.00 0.00 0.00 0.00 0.00 0.00 0.00 0.00 0.00 0.00 0.00 0.00 0.00 0.00 0.00 0.00 0.00 0.00 0.00 0.00 0.02 0.02 0.01 0.00 0.03 0.01 0.04 0.07 0.06 0.01 0.02 0.00 0.01 0.09 0.01 0.01 0.01 0.02 0.01 0.01 0.04 0.05 0.05 0.13
0.00 0.00 0.00 0.00 0.00 0.00 0.00 0.00 0.00 0.00 0.00 0.00 0.00 0.00 0.02 0.11 0.01 0.00 0.00 0.00 0.00 0.00 0.00 0.00 0.00 0.00 0.00 0.00 0.00 0.00 0.00 0.00 0.00 0.00 0.00 0.00 0.00 0.00 0.00 0.00 0.00 0.00 0.00 0.00 0.00 0.00 0.00 0.00 0.00 0.00 0.00 0.00 0.00 0.00 0.00 0.00 0.00 0.00 0.00 0.00 0.00 0.01 0.00 0.00 0.00 0.01 0.00 0.00 0.00 0.02 0.03 0.14 0.06 0.02 0.00 0.02 0.00 0.01 0.03 0.00 0.01 0.00 0.00 0.01 0.19 0.08 0.10 0.08
0.00 0.00 0.00 0.00 0.00 0.00 0.00 0.00 0.00 0.00 0.00 0.00 0.00 0.07 0.08 0.04 0.01 0.04 0.02 0.01 0.00 0.00 0.00 0.00 0.00 0.00 0.00 0.00 0.00 0.00 0.00 0.00 0.00 0.00 0.00 0.00 0.00 0.00 0.00 0.00 0.00 0.00 0.00 0.00 0.00 0.00 0.00 0.00 0.00 0.00 0.00 0.00 0.00 0.00 0.00 0.00 0.00 0.00 0.00 0.00 0.00 0.00 0.00 0.01 0.00 0.00 0.01 0.02 0.00 0.02 0.10 0.15 0.21 0.12 0.05 0.15 0.02 0.02 0.01 0.00 0.02 0.03 0.11 0.27 0.21 0.15 0.08 0.07
0.00 0.00 0.00 0.00 0.00 0.00 0.00 0.00 0.00 0.00 0.00 0.00 0.03 0.08 0.07 0.02 0.03 0.00 0.00 0.00 0.00 0.00 0.00 0.00 0.00 0.00 0.00 0.02 0.00 0.00 0.00 0.00 0.00 0.00 0.00 0.00 0.00 0.02 0.00 0.00 0.00 0.00 0.00 0.00 0.01 0.00 0.00 0.00 0.00 0.00 0.00 0.00 0.00 0.00 0.00 0.00 0.00 0.00 0.00 0.00 0.00 0.00 0.00 0.00 0.00 0.00 0.00 0.00 0.17 0.00 0.01 0.01 0.04 0.12 0.34 0.13 0.64 0.78 0.33 0.37 0.48 0.50 0.62 0.68 0.14 0.35 0.20 0.15
0.00 0.00 0.00 0.00 0.00 0.00 0.00 0.00 0.00 0.00 0.00 0.00 0.12 0.04 0.00 0.00 0.00 0.00 0.00 0.00 0.00 0.00 0.00 0.00 0.00 0.00 0.00 0.00 0.00 0.00 0.00 0.00 0.00 0.00 0.00 0.00 0.00 0.00 0.00 0.00 0.00 0.00 0.00 0.00 0.00 0.00 0.00 0.00 0.00 0.00 0.00 0.00 0.00 0.00 0.00 0.00 0.00 0.00 0.00 0.00 0.00 0.00 0.00 0.00 0.00 0.00 0.00 0.00 0.02 0.00 0.07 0.13 0.02 0.07 0.07 0.08 0.24 0.21 0.61 0.50 0.47 0.54 0.45 0.45 0.49 0.44 0.66 0.70
0.00 0.00 0.00 0.00 0.00 0.00 0.00 0.00 0.00 0.00 0.00 0.05 0.08 0.00 0.00 0.01 0.00 0.00 0.00 0.00 0.01 0.00 0.01 0.00 0.00 0.00 0.00 0.00 0.00 0.00 0.00 0.00 0.00 0.00 0.00 0.00 0.01 0.00 0.00 0.00 0.00 0.00 0.00 0.00 0.00 0.00 0.00 0.00 0.00 0.00 0.00 0.00 0.00 0.00 0.00 0.00 0.00 0.00 0.00 0.00 0.00 0.01 0.02 0.00 0.00 0.01 0.01 0.00 0.04 0.04 0.07 0.04 0.08 0.07 0.02 0.01 0.01 0.05 0.04 0.03 0.05 0.08 0.26 0.29 0.18 0.16 0.28 0.36
0.00 0.00 0.00 0.00 0.00 0.00 0.00 0.00 0.00 0.01 0.04 0.20 0.05 0.01 0.05 0.01 0.00 0.00 0.00 0.00 0.00 0.00 0.00 0.00 0.00 0.00 0.00 0.00 0.00 0.00 0.00 0.00 0.00 0.00 0.02 0.00 0.01 0.00 0.00 0.00 0.00 0.00 0.00 0.00 0.00 0.00 0.00 0.00 0.00 0.00 0.00 0.00 0.00 0.00 0.00 0.00 0.00 0.00 0.00 0.00 0.00 0.00 0.00 0.00 0.00 0.09 0.00 0.17 0.00 0.23 0.21 0.28 0.17 0.29 0.13 0.10 0.11 0.02 0.04 0.03 0.02 0.03 0.03 0.14 0.19 0.23 0.39 0.37
0.00 0.00 0.00 0.00 0.00 0.00 0.00 0.00 0.00 0.01 0.12 0.06 0.04 0.03 0.00 0.00 0.00 0.00 0.00 0.00 0.01 0.00 0.00 0.00 0.00 0.00 0.00 0.00 0.00 0.00 0.00 0.00 0.00 0.00 0.00 0.00 0.00 0.00 0.00 0.00 0.00 0.00 0.00 0.00 0.00 0.00 0.00 0.00 0.00 0.00 0.00 0.00 0.00 0.00 0.00 0.00 0.00 0.00 0.00 0.00 0.00 0.00 0.00 0.00 0.00 0.02 0.02 0.04 0.09 0.08 0.09 0.11 0.16 0.13 0.62 0.64 0.13 0.01 0.01 0.03 0.02 0.03 0.03 0.04 0.22 0.35 0.28 0.22
0.00 0.00 0.00 0.00 0.00 0.00 0.00 0.00 0.02 0.05 0.05 0.08 0.00 0.01 0.00 0.00 0.00 0.00 0.00 0.00 0.00 0.00 0.00 0.00 0.00 0.00 0.00 0.00 0.00 0.00 0.00 0.00 0.00 0.00 0.00 0.00 0.00 0.00 0.00 0.00 0.00 0.00 0.00 0.00 0.00 0.00 0.00 0.00 0.00 0.00 0.00 0.00 0.00 0.00 0.00 0.00 0.00 0.00 0.00 0.00 0.00 0.00 0.00 0.00 0.00 0.00 0.00 0.01 0.04 0.04 0.36 0.05 0.12 0.01 0.05 0.44 0.12 0.19 0.01 0.01 0.01 0.02 0.02 0.02 0.10 0.35 0.12 0.11
0.00 0.01 0.00 0.00 0.00 0.00 0.00 0.05 0.05 0.01 0.03 0.05 0.06 0.02 0.01 0.00 0.00 0.00 0.00 0.00 0.00 0.00 0.00 0.00 0.00 0.00 0.00 0.00 0.00 0.00 0.00 0.00 0.01 0.01 0.01 0.01 0.00 0.00 0.00 0.00 0.00 0.00 0.00 0.00 0.01 0.04 0.00 0.00 0.00 0.00 0.00 0.00 0.00 0.00 0.00 0.00 0.00 0.00 0.00 0.00 0.00 0.00 0.00 0.00 0.00 0.03 0.00 0.01 0.01 0.09 0.03 0.24 0.03 0.13 0.04 0.16 0.41 0.36 0.33 0.08 0.09 0.06 0.10 0.11 0.07 0.14 0.39 0.34
0.00 0.00 0.00 0.00 0.00 0.00 0.00 0.05 0.02 0.03 0.03 0.02 0.00 0.08 0.03 0.01 0.01 0.01 0.01 0.01 0.01 0.00 0.01 0.00 0.00 0.00 0.00 0.00 0.00 0.00 0.00 0.00 0.01 0.03 0.02 0.02 0.02 0.01 0.00 0.00 0.00 0.00 0.00 0.00 0.00 0.00 0.00 0.00 0.00 0.00 0.00 0.00 0.00 0.00 0.00 0.00 0.00 0.00 0.00 0.00 0.00 0.00 0.00 0.00 0.00 0.01 0.01 0.13 0.08 0.12 0.04 0.08 0.19 0.10 0.14 0.04 0.36 0.21 0.20 0.50 0.68 0.64 0.53 0.40 0.40 0.28 0.04 0.12
0.00 0.00 0.00 0.00 0.00 0.00 0.01 0.03 0.05 0.04 0.05 0.01 0.01 0.02 0.01 0.01 0.02 0.05 0.04 0.08 0.02 0.09 0.07 0.02 0.00 0.02 0.01 0.00 0.00 0.03 0.00 0.00 0.01 0.02 0.04 0.03 0.04 0.01 0.00 0.00 0.00 0.00 0.00 0.00 0.00 0.01 0.00 0.01 0.00 0.00 0.00 0.00 0.00 0.00 0.00 0.00 0.00 0.00 0.00 0.00 0.00 0.00 0.01 0.01 0.00 0.01 0.01 0.03 0.05 0.03 0.08 0.05 0.12 0.16 0.15 0.12 0.10 0.20 0.09 0.11 0.01 0.05 0.06 0.05 0.20 0.42 0.76 0.24
0.02 0.00 0.00 0.00 0.00 0.00 0.06 0.04 0.06 0.04 0.02 0.02 0.01 0.03 0.05 0.05 0.03 0.02 0.02 0.01 0.07 0.06 0.01 0.03 0.03 0.06 0.01 0.02 0.00 0.00 0.00 0.00 0.03 0.04 0.03 0.04 0.07 0.02 0.00 0.00 0.00 0.00 0.00 0.00 0.00 0.00 0.00 0.01 0.02 0.04 0.00 0.00 0.02 0.01 0.05 0.18 0.01 0.01 0.00 0.00 0.00 0.01 0.00 0.00 0.00 0.02 0.00 0.08 0.04 0.08 0.11 0.08 0.05 0.06 0.02 0.24 0.18 0.07 0.05 0.08 0.01 0.01 0.01 0.00 0.27 0.04 0.11 0.06
0.01 0.15 0.00 0.00 0.01 0.02 0.01 0.00 0.03 0.04 0.04 0.03 0.01 0.03 0.01 0.06 0.07 0.05 0.02 0.04 0.02 0.03 0.02 0.10 0.02 0.04 0.06 0.02 0.03 0.02 0.02 0.01 0.02 0.05 0.05 0.09 0.08 0.06 0.01 0.01 0.00 0.00 0.00 0.00 0.00 0.00 0.00 0.00 0.00 0.01 0.01 0.08 0.22 0.03 0.00 0.00 0.00 0.01 0.00 0.00 0.01 0.00 0.00 0.00 0.00 0.00 0.01 0.05 0.07 0.08 0.02 0.09 0.09 0.09 0.05 0.04 0.04 0.06 0.04 0.03 0.05 0.01 0.01 0.01 0.00 0.01 0.02 0.05
0.07 0.05 0.02 0.12 0.04 0.15 0.03 0.06 0.03 0.08 0.09 0.05 0.05 0.02 0.01 0.03 0.03 0.06 0.04 0.12 0.05 0.04 0.02 0.04 0.07 0.06 0.16 0.06 0.09 0.04 0.01 0.01 0.00 0.01 0.05 0.07 0.04 0.04 0.03 0.01 0.02 0.01 0.01 0.00 0.00 0.00 0.00 0.00 0.00 0.00 0.00 0.00 0.01 0.00 0.00 0.00 0.00 0.00 0.00 0.00 0.00 0.00 0.00 0.00 0.00 0.00 0.01 0.01 0.04 0.03 0.03 0.00 0.06 0.05 0.04 0.03 0.03 0.00 0.01 0.01 0.01 0.02 0.01 0.01 0.01 0.00 0.01 0.01
0.19 0.05 0.03 0.37 0.18 0.07 0.05 0.08 0.09 0.15 0.10 0.06 0.14 0.03 0.04 0.02 0.04 0.06 0.03 0.04 0.03 0.06 0.14 0.24 0.07 0.12 0.07 0.07 0.09 0.13 0.10 0.06 0.02 0.05 0.03 0.04 0.03 0.03 0.03 0.06 0.02 0.05 0.02 0.01 0.00 0.00 0.00 0.00 0.00 0.00 0.00 0.00 0.00 0.00 0.00 0.00 0.00 0.00 0.02 0.01 0.00 0.00 0.00 0.00 0.00 0.00 0.01 0.01 0.16 0.04 0.03 0.05 0.04 0.13 0.08 0.03 0.03 0.02 0.02 0.05 0.01 0.00 0.01 0.02 0.00 0.01 0.01 0.00
0.08 0.08 0.04 0.04 0.20 0.15 0.10 0.08 0.02 0.10 0.18 0.15 0.11 0.08 0.05 0.06 0.04 0.03 0.04 0.02 0.03 0.05 0.06 0.15 0.14 0.12 0.09 0.07 0.08 0.19 0.19 0.11 0.05 0.12 0.05 0.05 0.04 0.03 0.04 0.05 0.03 0.04 0.03 0.02 0.00 0.00 0.00 0.00 0.01 0.00 0.01 0.00 0.00 0.00 0.00 0.00 0.00 0.00 0.00 0.01 0.00 0.00 0.00 0.00 0.00 0.00 0.00 0.02 0.01 0.04 0.13 0.12 0.06 0.11 0.23 0.07 0.02 0.02 0.01 0.08 0.07 0.05 0.00 0.00 0.00 0.01 0.02 0.01
0.16 0.32 0.76 0.15 0.39 0.09 0.06 0.06 0.04 0.05 0.11 0.13 0.19 0.23 0.16 0.12 0.04 0.02 0.12 0.07 0.07 0.04 0.08 0.09 0.11 0.12 0.09 0.09 0.10 0.16 0.14 0.10 0.04 0.13 0.02 0.02 0.02 0.03 0.04 0.05 0.11 0.05 0.04 0.04 0.02 0.06 0.00 0.02 0.00 0.00 0.00 0.01 0.00 0.00 0.00 0.00 0.00 0.00 0.00 0.00 0.01 0.01 0.00 0.00 0.00 0.00 0.00 0.00 0.03 0.01 0.03 0.14 0.11 0.05 0.11 0.42 0.10 0.06 0.03 0.02 0.40 0.28 0.11 0.05 0.03 0.03 0.01 0.02
0.20 0.46 0.70 0.80 0.33 0.14 0.12 0.07 0.10 0.19 0.18 0.06 0.10 0.23 0.11 0.15 0.13 0.23 0.15 0.08 0.06 0.11 0.18 0.12 0.06 0.06 0.06 0.06 0.09 0.10 0.07 0.05 0.04 0.02 0.02 0.02 0.05 0.06 0.04 0.10 0.03 0.05 0.07 0.05 0.05 0.06 0.00 0.02 0.00 0.02 0.01 0.00 0.00 0.01 0.00 0.00 0.00 0.00 0.00 0.00 0.00 0.00 0.02 0.02 0.01 0.05 0.03 0.09 0.06 0.10 0.04 0.05 0.14 0.04 0.01 0.24 0.35 0.12 0.08 0.01 0.18 0.16 0.14 0.18 0.13 0.01 0.27 0.02
0.28 0.33 0.80 0.91 0.55 0.18 0.08 0.04 0.08 0.08 0.22 0.10 0.25 0.20 0.23 0.11 0.14 0.09 0.14 0.07 0.08 0.22 0.20 0.08 0.06 0.03 0.05 0.08 0.16 0.11 0.08 0.06 0.04 0.04 0.02 0.00 0.00 0.00 0.01 0.01 0.01 0.03 0.06 0.06 0.04 0.08 0.03 0.07 0.03 0.04 0.05 0.02 0.01 0.02 0.01 0.01 0.01 0.01 0.01 0.00 0.00 0.00 0.00 0.00 0.01 0.02 0.04 0.04 0.08 0.12 0.33 0.08 0.04 0.04 0.00 0.02 0.31 0.47 0.10 0.04 0.09 0.05 0.18 0.11 0.14 0.00 0.05 0.21